Ocoee 3 Observed Data For Previous 48 Hours

Caption
Day and Hour Reservoir Elevation (behind dam)* Tailwater Elevation (below dam)* Average Hourly Discharge*
7/14/2018 2 AM EDT 1,432.19 1,114.10 0
7/14/2018 3 AM EDT 1,432.65 1,114.07 0
7/14/2018 4 AM EDT 1,432.97 1,114.09 0
7/14/2018 5 AM EDT 1,433.20 1,114.08 0
7/14/2018 6 AM EDT 1,433.36 1,114.07 0
7/14/2018 7 AM EDT 1,433.48 1,117.63 48
7/14/2018 8 AM EDT 1,433.39 1,119.46 1,060
7/14/2018 9 AM EDT 1,433.11 1,119.12 2,001
7/14/2018 10 AM EDT 1,432.62 1,119.10 2,852
7/14/2018 11 AM EDT 1,432.18 1,119.84 2,480
7/14/2018 12 PM EDT 1,431.92 1,119.91 1,620
7/14/2018 1 PM EDT 1,431.68 1,120.03 1,613
7/14/2018 2 PM EDT 1,431.44 1,119.97 1,610
7/14/2018 3 PM EDT 1,431.22 1,119.88 1,609
7/14/2018 4 PM EDT 1,430.96 1,119.89 1,600
7/14/2018 5 PM EDT 1,430.86 1,119.88 917
7/14/2018 6 PM EDT 1,431.05 1,118.05 0
7/14/2018 7 PM EDT 1,431.43 1,116.01 0
7/14/2018 8 PM EDT 1,431.54 1,119.52 1,151
7/14/2018 9 PM EDT 1,431.52 1,119.45 1,217
7/14/2018 10 PM EDT 1,431.79 1,114.53 20
7/14/2018 11 PM EDT 1,432.26 1,114.68 0
7/15/2018 12 AM EDT 1,432.75 1,114.60 0
7/15/2018 1 AM EDT 1,433.22 1,114.55 0
7/15/2018 2 AM EDT 1,433.61 1,114.60 0
7/15/2018 3 AM EDT 1,433.89 1,114.63 0
7/15/2018 4 AM EDT 1,434.08 1,114.57 0
7/15/2018 5 AM EDT 1,434.22 1,114.52 0
7/15/2018 6 AM EDT 1,434.34 1,114.50 0
7/15/2018 7 AM EDT 1,434.46 1,114.49 0
7/15/2018 8 AM EDT 1,434.48 1,119.28 774
7/15/2018 9 AM EDT 1,434.39 1,118.91 1,299
7/15/2018 10 AM EDT 1,433.98 1,119.11 2,741
7/15/2018 11 AM EDT 1,433.53 1,119.17 2,871
7/15/2018 12 PM EDT 1,433.22 1,119.98 1,802
7/15/2018 1 PM EDT 1,433.00 1,120.01 1,637
7/15/2018 2 PM EDT 1,432.77 1,119.96 1,630
7/15/2018 3 PM EDT 1,432.79 1,119.89 114
7/15/2018 4 PM EDT 1,432.84 1,120.50 559
7/15/2018 5 PM EDT 1,432.73 1,119.71 1,231
7/15/2018 6 PM EDT 1,432.62 1,119.41 1,221
7/15/2018 7 PM EDT 1,432.64 1,119.23 1,216
7/15/2018 8 PM EDT 1,432.69 1,118.74 1,048
7/15/2018 9 PM EDT 1,432.71 1,118.65 1,040
7/15/2018 10 PM EDT 1,432.69 1,118.65 1,044
7/15/2018 11 PM EDT 1,432.66 1,118.62 1,042
7/16/2018 12 AM EDT 1,432.75 1,118.59 1,041
7/16/2018 1 AM EDT 1,432.96 1,118.57 1,044
7/16/2018 2 AM EDT 1,433.14 1,118.63 1,043

Elevations are in feet above sea level. Discharges are in cubic feet per second and are reported at the end of the hour.